Year,Month,Day,Hour,Minute,Value (Times are PST for temperature in C)
2014,08,10,00,00,16.40
2014,08,10,00,01,16.40
2014,08,10,00,02,16.30
2014,08,10,00,03,16.30
2014,08,10,00,04,16.30
2014,08,10,00,05,16.30
2014,08,10,00,06,16.30
2014,08,10,00,07,16.30
2014,08,10,00,08,16.30
2014,08,10,00,09,16.30
2014,08,10,00,10,16.30
2014,08,10,00,11,16.30
2014,08,10,00,12,16.30
2014,08,10,00,13,16.20
2014,08,10,00,14,16.20
2014,08,10,00,15,16.20
2014,08,10,00,16,16.20
2014,08,10,00,17,16.20
2014,08,10,00,18,16.10
2014,08,10,00,19,16.10
2014,08,10,00,20,16.10
2014,08,10,00,21,16.10
2014,08,10,00,22,16.10
2014,08,10,00,23,16.00
2014,08,10,00,24,16.00
2014,08,10,00,25,16.00
2014,08,10,00,26,16.00
2014,08,10,00,27,16.00
2014,08,10,00,28,16.00
2014,08,10,00,29,16.00
2014,08,10,00,30,15.90
2014,08,10,00,31,15.90
2014,08,10,00,32,15.90
2014,08,10,00,33,15.90
2014,08,10,00,34,15.90
2014,08,10,00,35,15.90
2014,08,10,00,36,15.90
2014,08,10,00,37,15.80
2014,08,10,00,38,15.80
2014,08,10,00,39,15.80
2014,08,10,00,40,15.80
2014,08,10,00,41,15.80
2014,08,10,00,42,15.80
2014,08,10,00,43,15.80
2014,08,10,00,44,15.80
2014,08,10,00,45,15.80
2014,08,10,00,46,15.80
2014,08,10,00,47,15.80
2014,08,10,00,48,15.80
2014,08,10,00,49,15.70
2014,08,10,00,50,15.70
2014,08,10,00,51,15.70
2014,08,10,00,52,15.70
2014,08,10,00,53,15.70
2014,08,10,00,54,15.70
2014,08,10,00,55,15.60
2014,08,10,00,56,15.60
2014,08,10,00,57,15.60
2014,08,10,00,58,15.60
2014,08,10,00,59,15.50
2014,08,10,01,00,15.50
2014,08,10,01,01,15.50
2014,08,10,01,02,15.40
2014,08,10,01,03,15.40
2014,08,10,01,04,15.40
2014,08,10,01,05,15.40
2014,08,10,01,06,15.40
2014,08,10,01,07,15.30
2014,08,10,01,08,15.30
2014,08,10,01,09,15.30
2014,08,10,01,10,15.30
2014,08,10,01,11,15.30
2014,08,10,01,12,15.30
2014,08,10,01,13,15.30
2014,08,10,01,14,15.20
2014,08,10,01,15,15.20
2014,08,10,01,16,15.20
2014,08,10,01,17,15.20
2014,08,10,01,18,15.20
2014,08,10,01,19,15.20
2014,08,10,01,20,15.20
2014,08,10,01,21,15.20
2014,08,10,01,22,15.20
2014,08,10,01,23,15.20
2014,08,10,01,24,15.20
2014,08,10,01,25,15.20
2014,08,10,01,26,15.20
2014,08,10,01,27,15.20
2014,08,10,01,28,15.20
2014,08,10,01,29,15.20
2014,08,10,01,30,15.20
2014,08,10,01,31,15.20
2014,08,10,01,32,15.10
2014,08,10,01,33,15.10
2014,08,10,01,34,15.10
2014,08,10,01,35,15.10
2014,08,10,01,36,15.10
2014,08,10,01,37,15.10
2014,08,10,01,38,15.10
2014,08,10,01,39,15.10
2014,08,10,01,40,15.10
2014,08,10,01,41,15.20
2014,08,10,01,42,15.20
2014,08,10,01,43,15.20
2014,08,10,01,44,15.20
2014,08,10,01,45,15.20
2014,08,10,01,46,15.20
2014,08,10,01,47,15.20
2014,08,10,01,48,15.20
2014,08,10,01,49,15.10
2014,08,10,01,50,15.10
2014,08,10,01,51,15.10
2014,08,10,01,52,15.10
2014,08,10,01,53,15.10
2014,08,10,01,54,15.10
2014,08,10,01,55,15.10
2014,08,10,01,56,15.10
2014,08,10,01,57,15.10
2014,08,10,01,58,15.10
2014,08,10,01,59,15.10
2014,08,10,02,00,15.10
2014,08,10,02,01,15.00
2014,08,10,02,02,15.00
2014,08,10,02,03,15.00
2014,08,10,02,04,15.00
2014,08,10,02,05,15.00
2014,08,10,02,06,15.00
2014,08,10,02,07,15.00
2014,08,10,02,08,15.00
2014,08,10,02,09,15.00
2014,08,10,02,10,15.00
2014,08,10,02,11,15.00
2014,08,10,02,12,15.00
2014,08,10,02,13,15.00
2014,08,10,02,14,14.90
2014,08,10,02,15,14.90
2014,08,10,02,16,14.90
2014,08,10,02,17,14.90
2014,08,10,02,18,14.90
2014,08,10,02,19,14.90
2014,08,10,02,20,14.90
2014,08,10,02,21,14.90
2014,08,10,02,22,14.90
2014,08,10,02,23,14.90
2014,08,10,02,24,14.90
2014,08,10,02,25,14.90
2014,08,10,02,26,14.90
2014,08,10,02,27,14.90
2014,08,10,02,28,14.90
2014,08,10,02,29,14.90
2014,08,10,02,30,14.90
2014,08,10,02,31,14.90
2014,08,10,02,32,14.90
2014,08,10,02,33,14.90
2014,08,10,02,34,14.90
2014,08,10,02,35,14.90
2014,08,10,02,36,14.90
2014,08,10,02,37,14.90
2014,08,10,02,38,14.90
2014,08,10,02,39,14.90
2014,08,10,02,40,14.90
2014,08,10,02,41,14.90
2014,08,10,02,42,14.90
2014,08,10,02,43,14.90
2014,08,10,02,44,14.90
2014,08,10,02,45,14.90
2014,08,10,02,46,14.90
2014,08,10,02,47,14.80
2014,08,10,02,48,14.80
2014,08,10,02,49,14.80
2014,08,10,02,50,14.80
2014,08,10,02,51,14.90
2014,08,10,02,52,14.90
2014,08,10,02,53,14.90
2014,08,10,02,54,14.90
2014,08,10,02,55,15.00
2014,08,10,02,56,15.00
2014,08,10,02,57,15.00
2014,08,10,02,58,15.00
2014,08,10,02,59,15.10
2014,08,10,03,00,15.10
2014,08,10,03,01,15.10
2014,08,10,03,02,15.10
2014,08,10,03,03,15.20
2014,08,10,03,06,15.20
2014,08,10,03,07,15.20
2014,08,10,03,08,15.20
2014,08,10,03,09,15.30
2014,08,10,03,10,15.30
2014,08,10,03,11,15.30
2014,08,10,03,12,15.30
2014,08,10,03,13,15.30
2014,08,10,03,14,15.30
2014,08,10,03,15,15.30
2014,08,10,03,16,15.30
2014,08,10,03,17,15.30
2014,08,10,03,18,15.30
2014,08,10,03,19,15.30
2014,08,10,03,20,15.30
2014,08,10,03,21,15.30
2014,08,10,03,22,15.30
2014,08,10,03,23,15.30
2014,08,10,03,24,15.30
2014,08,10,03,25,15.30
2014,08,10,03,26,15.30
2014,08,10,03,27,15.30
2014,08,10,03,28,15.30
2014,08,10,03,29,15.30
2014,08,10,03,30,15.30
2014,08,10,03,31,15.30
2014,08,10,03,32,15.20
2014,08,10,03,33,15.20
2014,08,10,03,34,15.20
2014,08,10,03,35,15.20
2014,08,10,03,36,15.20
2014,08,10,03,37,15.20
2014,08,10,03,38,15.20
2014,08,10,03,39,15.20
2014,08,10,03,40,15.10
2014,08,10,03,41,15.10
2014,08,10,03,42,15.10
2014,08,10,03,43,15.10
2014,08,10,03,44,15.10
2014,08,10,03,45,15.00
2014,08,10,03,46,15.00
2014,08,10,03,47,15.00
2014,08,10,03,48,14.90
2014,08,10,03,49,14.90
2014,08,10,03,50,14.80
2014,08,10,03,51,14.80
2014,08,10,03,52,14.80
2014,08,10,03,53,14.80
2014,08,10,03,54,14.70
2014,08,10,03,55,14.70
2014,08,10,03,56,14.70
2014,08,10,03,57,14.60
2014,08,10,03,58,14.60
2014,08,10,03,59,14.60
2014,08,10,04,00,14.50
2014,08,10,04,01,14.50
2014,08,10,04,02,14.50
2014,08,10,04,03,14.40
2014,08,10,04,04,14.40
2014,08,10,04,05,14.40
2014,08,10,04,06,14.40
2014,08,10,04,07,14.40
2014,08,10,04,08,14.30
2014,08,10,04,09,14.30
2014,08,10,04,10,14.30
2014,08,10,04,11,14.30
2014,08,10,04,12,14.30
2014,08,10,04,13,14.30
2014,08,10,04,14,14.20
2014,08,10,04,15,14.20
2014,08,10,04,16,14.20
2014,08,10,04,17,14.20
2014,08,10,04,18,14.20
2014,08,10,04,19,14.20
2014,08,10,04,20,14.20
2014,08,10,04,21,14.20
2014,08,10,04,22,14.20
2014,08,10,04,23,14.20
2014,08,10,04,24,14.20
2014,08,10,04,25,14.20
2014,08,10,04,26,14.20
2014,08,10,04,27,14.20
2014,08,10,04,28,14.20
2014,08,10,04,29,14.20
2014,08,10,04,30,14.20
2014,08,10,04,31,14.20
2014,08,10,04,32,14.20
2014,08,10,04,33,14.20
2014,08,10,04,34,14.10
2014,08,10,04,35,14.10
2014,08,10,04,36,14.10
2014,08,10,04,37,14.10
2014,08,10,04,38,14.10
2014,08,10,04,39,14.10
2014,08,10,04,40,14.10
2014,08,10,04,41,14.10
2014,08,10,04,42,14.10
2014,08,10,04,43,14.10
2014,08,10,04,44,14.20
2014,08,10,04,45,14.20
2014,08,10,04,46,14.20
2014,08,10,04,47,14.20
2014,08,10,04,48,14.20
2014,08,10,04,49,14.20
2014,08,10,04,50,14.20
2014,08,10,04,51,14.20
2014,08,10,04,52,14.20
2014,08,10,04,53,14.20
2014,08,10,04,54,14.30
2014,08,10,04,55,14.30
2014,08,10,04,56,14.30
2014,08,10,04,57,14.30
2014,08,10,04,58,14.30
2014,08,10,04,59,14.30
2014,08,10,05,00,14.30
2014,08,10,05,01,14.30
2014,08,10,05,02,14.30
2014,08,10,05,03,14.20
2014,08,10,05,04,14.20
2014,08,10,05,05,14.20
2014,08,10,05,06,14.20
2014,08,10,05,07,14.20
2014,08,10,05,08,14.20
2014,08,10,05,09,14.20
2014,08,10,05,10,14.10
2014,08,10,05,11,14.10
2014,08,10,05,12,14.10
2014,08,10,05,13,14.10
2014,08,10,05,14,14.10
2014,08,10,05,15,14.10
2014,08,10,05,16,14.10
2014,08,10,05,17,14.10
2014,08,10,05,18,14.10
2014,08,10,05,19,14.10
2014,08,10,05,20,14.10
2014,08,10,05,21,14.10
2014,08,10,05,22,14.10
2014,08,10,05,23,14.10
2014,08,10,05,24,14.10
2014,08,10,05,25,14.10
2014,08,10,05,26,14.10
2014,08,10,05,27,14.10
2014,08,10,05,28,14.10
2014,08,10,05,29,14.10
2014,08,10,05,30,14.20
2014,08,10,05,31,14.20
2014,08,10,05,32,14.20
2014,08,10,05,33,14.20
2014,08,10,05,34,14.20
2014,08,10,05,35,14.20
2014,08,10,05,36,14.20
2014,08,10,05,37,14.20
2014,08,10,05,38,14.20
2014,08,10,05,39,14.10
2014,08,10,05,40,14.10
2014,08,10,05,41,14.00
2014,08,10,05,42,14.00
2014,08,10,05,43,13.90
2014,08,10,05,44,13.90
2014,08,10,05,45,13.80
2014,08,10,05,46,13.80
2014,08,10,05,47,13.80
2014,08,10,05,48,13.70
2014,08,10,05,49,13.70
2014,08,10,05,50,13.70
2014,08,10,05,51,13.70
2014,08,10,05,52,13.60
2014,08,10,05,53,13.60
2014,08,10,05,54,13.60
2014,08,10,05,55,13.60
2014,08,10,05,56,13.60
2014,08,10,05,57,13.50
2014,08,10,05,58,13.50
2014,08,10,05,59,13.50
2014,08,10,06,00,13.50
2014,08,10,06,01,13.40
2014,08,10,06,02,13.40
2014,08,10,06,03,13.40
2014,08,10,06,04,13.40
2014,08,10,06,05,13.40
2014,08,10,06,06,13.40
2014,08,10,06,07,13.40
2014,08,10,06,08,13.40
2014,08,10,06,09,13.40
2014,08,10,06,10,13.50
2014,08,10,06,11,13.50
2014,08,10,06,12,13.50
2014,08,10,06,13,13.50
2014,08,10,06,14,13.50
2014,08,10,06,15,13.50
2014,08,10,06,16,13.50
2014,08,10,06,17,13.50
2014,08,10,06,18,13.50
2014,08,10,06,19,13.50
2014,08,10,06,20,13.50
2014,08,10,06,21,13.50
2014,08,10,06,22,13.50
2014,08,10,06,23,13.50
2014,08,10,06,24,13.50
2014,08,10,06,25,13.50
2014,08,10,06,26,13.50
2014,08,10,06,27,13.50
2014,08,10,06,28,13.60
2014,08,10,06,29,13.60
2014,08,10,06,30,13.60
2014,08,10,06,31,13.60
2014,08,10,06,32,13.60
2014,08,10,06,33,13.60
2014,08,10,06,34,13.60
2014,08,10,06,35,13.60
2014,08,10,06,36,13.60
2014,08,10,06,37,13.60
2014,08,10,06,38,13.60
2014,08,10,06,39,13.60
2014,08,10,06,40,13.60
2014,08,10,06,41,13.60
2014,08,10,06,42,13.60
2014,08,10,06,43,13.60
2014,08,10,06,44,13.70
2014,08,10,06,45,13.70
2014,08,10,06,46,13.70
2014,08,10,06,47,13.70
2014,08,10,06,48,13.70
2014,08,10,06,49,13.70
2014,08,10,06,50,13.70
2014,08,10,06,51,13.70
2014,08,10,06,52,13.70
2014,08,10,06,53,13.70
2014,08,10,06,54,13.70
2014,08,10,06,55,13.70
2014,08,10,06,56,13.70
2014,08,10,06,57,13.70
2014,08,10,06,58,13.70
2014,08,10,06,59,13.70
2014,08,10,07,00,13.70
2014,08,10,07,01,13.70
2014,08,10,07,02,13.70
2014,08,10,07,03,13.70
2014,08,10,07,04,13.70
2014,08,10,07,05,13.70
2014,08,10,07,06,13.70
2014,08,10,07,07,13.70
2014,08,10,07,08,13.70
2014,08,10,07,09,13.70
2014,08,10,07,10,13.80
2014,08,10,07,11,13.80
2014,08,10,07,12,13.80
2014,08,10,07,13,13.80
2014,08,10,07,14,13.80
2014,08,10,07,15,13.80
2014,08,10,07,16,13.90
2014,08,10,07,17,13.90
2014,08,10,07,18,13.90
2014,08,10,07,19,13.90
2014,08,10,07,20,13.90
2014,08,10,07,21,13.90
2014,08,10,07,22,13.90
2014,08,10,07,23,13.90
2014,08,10,07,24,13.90
2014,08,10,07,25,14.00
2014,08,10,07,26,14.00
2014,08,10,07,27,14.00
2014,08,10,07,28,14.00
2014,08,10,07,29,14.10
2014,08,10,07,30,14.10
2014,08,10,07,31,14.10
2014,08,10,07,32,14.10
2014,08,10,07,33,14.20
2014,08,10,07,34,14.20
2014,08,10,07,35,14.20
2014,08,10,07,36,14.20
2014,08,10,07,37,14.20
2014,08,10,07,38,14.30
2014,08,10,07,39,14.30
2014,08,10,07,40,14.30
2014,08,10,07,41,14.30
2014,08,10,07,42,14.40
2014,08,10,07,43,14.40
2014,08,10,07,44,14.50
2014,08,10,07,45,14.60
2014,08,10,07,46,14.60
2014,08,10,07,47,14.70
2014,08,10,07,48,14.80
2014,08,10,07,49,14.80
2014,08,10,07,50,14.90
2014,08,10,07,51,14.90
2014,08,10,07,52,15.00
2014,08,10,07,53,15.00
2014,08,10,07,54,15.10
2014,08,10,07,55,15.10
2014,08,10,07,56,15.20
2014,08,10,07,57,15.20
2014,08,10,07,58,15.30
2014,08,10,07,59,15.40
2014,08,10,08,00,15.50
2014,08,10,08,01,15.50
2014,08,10,08,02,15.60
2014,08,10,08,03,15.60
2014,08,10,08,04,15.70
2014,08,10,08,05,15.70
2014,08,10,08,06,15.80
2014,08,10,08,07,15.80
2014,08,10,08,08,15.90
2014,08,10,08,09,15.90
2014,08,10,08,10,16.00
2014,08,10,08,11,16.10
2014,08,10,08,12,16.10
2014,08,10,08,13,16.20
2014,08,10,08,14,16.20
2014,08,10,08,15,16.30
2014,08,10,08,16,16.30
2014,08,10,08,17,16.40
2014,08,10,08,18,16.50
2014,08,10,08,19,16.50
2014,08,10,08,20,16.60
2014,08,10,08,21,16.60
2014,08,10,08,22,16.70
2014,08,10,08,23,16.80
2014,08,10,08,24,16.80
2014,08,10,08,25,16.90
2014,08,10,08,26,16.90
2014,08,10,08,27,17.00
2014,08,10,08,28,17.10
2014,08,10,08,29,17.10
2014,08,10,08,30,17.20
2014,08,10,08,31,17.20
2014,08,10,08,32,17.30
2014,08,10,08,33,17.30
2014,08,10,08,34,17.40
2014,08,10,08,35,17.50
2014,08,10,08,36,17.50
2014,08,10,08,37,17.60
2014,08,10,08,38,17.70
2014,08,10,08,39,17.80
2014,08,10,08,40,17.80
2014,08,10,08,41,17.90
2014,08,10,08,42,18.00
2014,08,10,08,43,18.00
2014,08,10,08,44,18.10
2014,08,10,08,45,18.20
2014,08,10,08,46,18.30
2014,08,10,08,47,18.40
2014,08,10,08,48,18.50
2014,08,10,08,49,18.60
2014,08,10,08,50,18.80
2014,08,10,08,51,18.90
2014,08,10,08,52,19.00
2014,08,10,08,53,19.10
2014,08,10,08,54,19.20
2014,08,10,08,55,19.30
2014,08,10,08,56,19.40
2014,08,10,08,57,19.50
2014,08,10,08,58,19.70
2014,08,10,08,59,19.70
2014,08,10,09,00,19.80
2014,08,10,09,01,19.90
2014,08,10,09,02,20.00
2014,08,10,09,03,20.10
2014,08,10,09,04,20.10
2014,08,10,09,05,20.20
2014,08,10,09,06,20.30
2014,08,10,09,07,20.30
2014,08,10,09,08,20.30
2014,08,10,09,09,20.40
2014,08,10,09,10,20.40
2014,08,10,09,11,20.50
2014,08,10,09,12,20.50
2014,08,10,09,13,20.50
2014,08,10,09,14,20.60
2014,08,10,09,15,20.60
2014,08,10,09,16,20.60
2014,08,10,09,17,20.70
2014,08,10,09,18,20.70
2014,08,10,09,19,20.70
2014,08,10,09,20,20.70
2014,08,10,09,21,20.70
2014,08,10,09,22,20.70
2014,08,10,09,23,20.70
2014,08,10,09,24,20.80
2014,08,10,09,25,20.80
2014,08,10,09,26,20.80
2014,08,10,09,27,20.80
2014,08,10,09,28,20.80
2014,08,10,09,29,20.80
2014,08,10,09,30,20.90
2014,08,10,09,31,20.90
2014,08,10,09,32,20.90
2014,08,10,09,33,20.90
2014,08,10,09,34,20.90
2014,08,10,09,35,20.90
2014,08,10,09,36,20.90
2014,08,10,09,37,21.00
2014,08,10,09,38,21.00
2014,08,10,09,39,21.00
2014,08,10,09,40,21.10
2014,08,10,09,41,21.10
2014,08,10,09,42,21.10
2014,08,10,09,43,21.10
2014,08,10,09,44,21.10
2014,08,10,09,45,21.20
2014,08,10,09,46,21.20
2014,08,10,09,47,21.20
2014,08,10,09,48,21.30
2014,08,10,09,49,21.30
2014,08,10,09,50,21.40
2014,08,10,09,51,21.40
2014,08,10,09,52,21.50
2014,08,10,09,53,21.50
2014,08,10,09,54,21.60
2014,08,10,09,55,21.60
2014,08,10,09,56,21.60
2014,08,10,09,57,21.70
2014,08,10,09,58,21.70
2014,08,10,09,59,21.70
2014,08,10,10,00,21.80
2014,08,10,10,01,21.80
2014,08,10,10,02,21.80
2014,08,10,10,03,21.90
2014,08,10,10,04,21.90
2014,08,10,10,05,21.90
2014,08,10,10,06,21.90
2014,08,10,10,07,21.90
2014,08,10,10,08,21.90
2014,08,10,10,09,22.00
2014,08,10,10,10,22.00
2014,08,10,10,11,22.00
2014,08,10,10,12,22.10
2014,08,10,10,13,22.10
2014,08,10,10,14,22.10
2014,08,10,10,15,22.20
2014,08,10,10,16,22.20
2014,08,10,10,17,22.30
2014,08,10,10,18,22.30
2014,08,10,10,19,22.40
2014,08,10,10,20,22.40
2014,08,10,10,21,22.40
2014,08,10,10,22,22.40
2014,08,10,10,23,22.40
2014,08,10,10,24,22.40
2014,08,10,10,25,22.50
2014,08,10,10,26,22.50
2014,08,10,10,27,22.50
2014,08,10,10,28,22.60
2014,08,10,10,29,22.60
2014,08,10,10,30,22.60
2014,08,10,10,31,22.60
2014,08,10,10,32,22.70
2014,08,10,10,33,22.70
2014,08,10,10,34,22.70
2014,08,10,10,35,22.80
2014,08,10,10,36,22.80
2014,08,10,10,37,22.90
2014,08,10,10,38,22.90
2014,08,10,10,39,22.90
2014,08,10,10,40,22.90
2014,08,10,10,41,22.90
2014,08,10,10,42,22.90
2014,08,10,10,43,22.90
2014,08,10,10,44,22.90
2014,08,10,10,45,22.90
2014,08,10,10,46,23.00
2014,08,10,10,47,23.00
2014,08,10,10,48,23.00
2014,08,10,10,49,23.10
2014,08,10,10,50,23.10
2014,08,10,10,51,23.10
2014,08,10,10,52,23.10
2014,08,10,10,53,23.10
2014,08,10,10,54,23.10
2014,08,10,10,55,23.10
2014,08,10,10,56,23.20
2014,08,10,10,57,23.20
2014,08,10,10,58,23.20
2014,08,10,10,59,23.20
2014,08,10,11,00,23.20
2014,08,10,11,01,23.30
2014,08,10,11,02,23.30
2014,08,10,11,03,23.30
2014,08,10,11,04,23.30
2014,08,10,11,05,23.30
2014,08,10,11,06,23.30
2014,08,10,11,07,23.30
2014,08,10,11,08,23.30
2014,08,10,11,09,23.30
2014,08,10,11,10,23.40
2014,08,10,11,11,23.40
2014,08,10,11,12,23.50
2014,08,10,11,13,23.60
2014,08,10,11,14,23.60
2014,08,10,11,15,23.60
2014,08,10,11,16,23.60
2014,08,10,11,17,23.60
2014,08,10,11,18,23.60
2014,08,10,11,19,23.60
2014,08,10,11,20,23.60
2014,08,10,11,21,23.60
2014,08,10,11,22,23.60
2014,08,10,11,23,23.70
2014,08,10,11,24,23.70
2014,08,10,11,25,23.70
2014,08,10,11,26,23.70
2014,08,10,11,27,23.70
2014,08,10,11,28,23.70
2014,08,10,11,29,23.80
2014,08,10,11,30,23.80
2014,08,10,11,31,23.80
2014,08,10,11,32,23.80
2014,08,10,11,33,23.80
2014,08,10,11,34,23.90
2014,08,10,11,35,23.90
2014,08,10,11,36,23.90
2014,08,10,11,37,23.90
2014,08,10,11,38,23.90
2014,08,10,11,39,23.90
2014,08,10,11,40,23.90
2014,08,10,11,41,23.90
2014,08,10,11,42,23.90
2014,08,10,11,43,24.00
2014,08,10,11,44,23.90
2014,08,10,11,45,23.90
2014,08,10,11,46,24.00
2014,08,10,11,47,24.00
2014,08,10,11,48,24.10
2014,08,10,11,49,24.10
2014,08,10,11,50,24.20
2014,08,10,11,51,24.20
2014,08,10,11,52,24.20
2014,08,10,11,53,24.30
2014,08,10,11,54,24.30
2014,08,10,11,55,24.30
2014,08,10,11,56,24.30
2014,08,10,11,57,24.30
2014,08,10,11,58,24.30
2014,08,10,11,59,24.40
2014,08,10,12,00,24.40
2014,08,10,12,01,24.40
2014,08,10,12,02,24.40
2014,08,10,12,03,24.40
2014,08,10,12,04,24.40
2014,08,10,12,05,24.40
2014,08,10,12,06,24.40
2014,08,10,12,07,24.40
2014,08,10,12,08,24.40
2014,08,10,12,09,24.40
2014,08,10,12,10,24.50
2014,08,10,12,11,24.50
2014,08,10,12,12,24.50
2014,08,10,12,13,24.60
2014,08,10,12,14,24.60
2014,08,10,12,15,24.60
2014,08,10,12,16,24.70
2014,08,10,12,17,24.70
2014,08,10,12,18,24.70
2014,08,10,12,19,24.80
2014,08,10,12,20,24.80
2014,08,10,12,21,24.80
2014,08,10,12,22,24.80
2014,08,10,12,23,24.80
2014,08,10,12,24,24.80
2014,08,10,12,25,24.90
2014,08,10,12,26,24.90
2014,08,10,12,27,25.00
2014,08,10,12,28,25.00
2014,08,10,12,29,25.10
2014,08,10,12,30,25.10
2014,08,10,12,31,25.20
2014,08,10,12,32,25.20
2014,08,10,12,33,25.20
2014,08,10,12,34,25.20
2014,08,10,12,35,25.20
2014,08,10,12,36,25.20
2014,08,10,12,37,25.30
2014,08,10,12,38,25.30
2014,08,10,12,39,25.30
2014,08,10,12,40,25.30
2014,08,10,12,41,25.30
2014,08,10,12,42,25.30
2014,08,10,12,43,25.30
2014,08,10,12,44,25.30
2014,08,10,12,45,25.30
2014,08,10,12,46,25.40
2014,08,10,12,47,25.40
2014,08,10,12,48,25.40
2014,08,10,12,49,25.40
2014,08,10,12,50,25.50
2014,08,10,12,51,25.50
2014,08,10,12,52,25.60
2014,08,10,12,53,25.60
2014,08,10,12,54,25.70
2014,08,10,12,55,25.70
2014,08,10,12,56,25.70
2014,08,10,12,57,25.70
2014,08,10,12,58,25.80
2014,08,10,12,59,25.80
2014,08,10,13,00,25.80
2014,08,10,13,01,25.80
2014,08,10,13,02,25.90
2014,08,10,13,03,25.90
2014,08,10,13,04,25.90
2014,08,10,13,05,26.00
2014,08,10,13,06,26.00
2014,08,10,13,07,26.00
2014,08,10,13,08,26.10
2014,08,10,13,09,26.10
2014,08,10,13,10,26.10
2014,08,10,13,11,26.10
2014,08,10,13,12,26.10
2014,08,10,13,13,26.20
2014,08,10,13,14,26.20
2014,08,10,13,15,26.20
2014,08,10,13,16,26.20
2014,08,10,13,17,26.20
2014,08,10,13,18,26.20
2014,08,10,13,19,26.30
2014,08,10,13,20,26.30
2014,08,10,13,21,26.30
2014,08,10,13,22,26.40
2014,08,10,13,23,26.40
2014,08,10,13,24,26.50
2014,08,10,13,25,26.50
2014,08,10,13,26,26.60
2014,08,10,13,27,26.60
2014,08,10,13,28,26.60
2014,08,10,13,29,26.60
2014,08,10,13,30,26.60
2014,08,10,13,31,26.70
2014,08,10,13,32,26.70
2014,08,10,13,33,26.80
2014,08,10,13,34,26.80
2014,08,10,13,35,26.90
2014,08,10,13,36,26.90
2014,08,10,13,37,27.00
2014,08,10,13,38,26.90
2014,08,10,13,39,26.80
2014,08,10,13,40,26.50
2014,08,10,13,41,26.20
2014,08,10,13,42,26.00
2014,08,10,13,43,25.80
2014,08,10,13,44,25.70
2014,08,10,13,45,25.60
2014,08,10,13,46,25.50
2014,08,10,13,47,25.50
2014,08,10,13,48,25.50
2014,08,10,13,49,25.60
2014,08,10,13,50,25.60
2014,08,10,13,51,25.60
2014,08,10,13,52,25.50
2014,08,10,13,53,25.40
2014,08,10,13,54,25.30
2014,08,10,13,55,25.20
2014,08,10,13,56,25.10
2014,08,10,13,57,25.00
2014,08,10,13,58,25.00
2014,08,10,13,59,25.00
2014,08,10,14,00,24.90
2014,08,10,14,01,25.00
2014,08,10,14,02,25.00
2014,08,10,14,03,25.00
2014,08,10,14,04,25.10
2014,08,10,14,05,25.10
2014,08,10,14,06,25.20
2014,08,10,14,07,25.20
2014,08,10,14,08,25.20
2014,08,10,14,09,25.20
2014,08,10,14,10,25.20
2014,08,10,14,11,25.10
2014,08,10,14,12,25.10
2014,08,10,14,13,25.10
2014,08,10,14,14,25.10
2014,08,10,14,15,25.20
2014,08,10,14,16,25.20
2014,08,10,14,17,25.30
2014,08,10,14,18,25.30
2014,08,10,14,19,25.40
2014,08,10,14,20,25.40
2014,08,10,14,21,25.50
2014,08,10,14,22,25.60
2014,08,10,14,23,25.70
2014,08,10,14,24,25.80
2014,08,10,14,25,25.90
2014,08,10,14,26,26.00
2014,08,10,14,27,26.00
2014,08,10,14,28,26.10
2014,08,10,14,29,26.20
2014,08,10,14,30,26.30
2014,08,10,14,31,26.40
2014,08,10,14,32,26.50
2014,08,10,14,33,26.50
2014,08,10,14,34,26.60
2014,08,10,14,35,26.70
2014,08,10,14,36,26.70
2014,08,10,14,37,26.80
2014,08,10,14,38,26.80
2014,08,10,14,39,26.80
2014,08,10,14,40,26.80
2014,08,10,14,41,26.80
2014,08,10,14,42,26.80
2014,08,10,14,43,26.90
2014,08,10,14,44,26.90
2014,08,10,14,45,27.00
2014,08,10,14,46,27.10
2014,08,10,14,47,27.10
2014,08,10,14,48,27.10
2014,08,10,14,49,27.20
2014,08,10,14,50,27.20
2014,08,10,14,51,27.30
2014,08,10,14,52,27.30
2014,08,10,14,53,27.40
2014,08,10,14,54,27.50
2014,08,10,14,55,27.50
2014,08,10,14,56,27.60
2014,08,10,14,57,27.60
2014,08,10,14,58,27.60
2014,08,10,14,59,27.70
2014,08,10,15,00,27.70
2014,08,10,15,01,27.70
2014,08,10,15,02,27.70
2014,08,10,15,03,27.80
2014,08,10,15,04,27.70
2014,08,10,15,05,27.70
2014,08,10,15,06,27.70
2014,08,10,15,07,27.70
2014,08,10,15,08,27.70
2014,08,10,15,09,27.70
2014,08,10,15,10,27.60
2014,08,10,15,11,27.60
2014,08,10,15,12,27.60
2014,08,10,15,13,27.70
2014,08,10,15,14,27.70
2014,08,10,15,15,27.70
2014,08,10,15,16,27.70
2014,08,10,15,17,27.70
2014,08,10,15,18,27.70
2014,08,10,15,19,27.80
2014,08,10,15,20,27.80
2014,08,10,15,21,27.80
2014,08,10,15,22,27.90
2014,08,10,15,23,27.90
2014,08,10,15,24,27.90
2014,08,10,15,25,27.90
2014,08,10,15,26,28.00
2014,08,10,15,27,28.00
2014,08,10,15,28,28.00
2014,08,10,15,29,28.10
2014,08,10,15,30,28.10
2014,08,10,15,31,28.10
2014,08,10,15,32,28.10
2014,08,10,15,33,28.10
2014,08,10,15,34,28.10
2014,08,10,15,35,28.10
2014,08,10,15,36,28.10
2014,08,10,15,37,28.10
2014,08,10,15,38,28.10
2014,08,10,15,39,28.10
2014,08,10,15,40,28.10
2014,08,10,15,41,28.10
2014,08,10,15,42,28.10
2014,08,10,15,43,28.10
2014,08,10,15,44,28.00
2014,08,10,15,45,28.00
2014,08,10,15,46,27.90
2014,08,10,15,47,27.90
2014,08,10,15,48,27.90
2014,08,10,15,49,27.90
2014,08,10,15,50,27.90
2014,08,10,15,51,28.00
2014,08,10,15,52,28.00
2014,08,10,15,53,28.00
2014,08,10,15,54,28.00
2014,08,10,15,55,28.00
2014,08,10,15,56,28.00
2014,08,10,15,57,28.00
2014,08,10,15,58,28.00
2014,08,10,15,59,28.00
2014,08,10,16,00,28.00
2014,08,10,16,01,28.00
2014,08,10,16,02,28.10
2014,08,10,16,03,28.10
2014,08,10,16,04,28.10
2014,08,10,16,05,28.20
2014,08,10,16,06,28.30
2014,08,10,16,07,28.30
2014,08,10,16,08,28.30
2014,08,10,16,09,28.40
2014,08,10,16,10,28.40
2014,08,10,16,11,28.50
2014,08,10,16,12,28.50
2014,08,10,16,13,28.60
2014,08,10,16,14,28.60
2014,08,10,16,15,28.60
2014,08,10,16,16,28.50
2014,08,10,16,17,28.50
2014,08,10,16,18,28.50
2014,08,10,16,19,28.50
2014,08,10,16,20,28.50
2014,08,10,16,21,28.60
2014,08,10,16,22,28.60
2014,08,10,16,23,28.50
2014,08,10,16,24,28.50
2014,08,10,16,25,28.50
2014,08,10,16,26,28.50
2014,08,10,16,27,28.40
2014,08,10,16,28,28.40
2014,08,10,16,29,28.40
2014,08,10,16,30,28.40
2014,08,10,16,31,28.50
2014,08,10,16,32,28.50
2014,08,10,16,33,28.50
2014,08,10,16,34,28.50
2014,08,10,16,35,28.50
2014,08,10,16,36,28.40
2014,08,10,16,37,28.40
2014,08,10,16,38,28.30
2014,08,10,16,39,28.30
2014,08,10,16,40,28.30
2014,08,10,16,41,28.30
2014,08,10,16,42,28.20
2014,08,10,16,43,28.20
2014,08,10,16,44,28.20
2014,08,10,16,45,28.20
2014,08,10,16,46,28.20
2014,08,10,16,47,28.20
2014,08,10,16,48,28.20
2014,08,10,16,49,28.30
2014,08,10,16,50,28.30
2014,08,10,16,51,28.30
2014,08,10,16,52,28.30
2014,08,10,16,53,28.30
2014,08,10,16,54,28.30
2014,08,10,16,55,28.30
2014,08,10,16,56,28.30
2014,08,10,16,57,28.30
2014,08,10,16,58,28.30
2014,08,10,16,59,28.30
2014,08,10,17,00,28.30
2014,08,10,17,01,28.40
2014,08,10,17,02,28.40
2014,08,10,17,03,28.30
2014,08,10,17,04,28.30
2014,08,10,17,05,28.30
2014,08,10,17,06,28.20
2014,08,10,17,07,28.20
2014,08,10,17,08,28.20
2014,08,10,17,09,28.20
2014,08,10,17,10,28.20
2014,08,10,17,11,28.20
2014,08,10,17,12,28.20
2014,08,10,17,13,28.20
2014,08,10,17,14,28.20
2014,08,10,17,15,28.20
2014,08,10,17,16,28.20
2014,08,10,17,17,28.20
2014,08,10,17,18,28.20
2014,08,10,17,19,28.30
2014,08,10,17,20,28.30
2014,08,10,17,21,28.40